Regional Weather Roundup
Issued by NWS Kansas City/Pleasant Hill, MO

Home | Current Version | Previous Version | Graphics & Text | Print | Product List | Glossary Off
Versions: 1 2 3 4 5 6 7 8 9 10 11 12 13 14 15 16 17 18 19 20 21 22 23 24 25 26 27 28 29 30 31 32 33 34 35 36 37 38 39 40 41 42 43 44 45 46 47 48 49 50

000
ASUS43 KEAX 282204
RWREAX

WEATHER ROUNDUP FOR EASTERN KANSAS AND NORTHWEST MISSOURI
NATIONAL WEATHER SERVICE KANSAS CITY/PLEASANT HILL MO
400 PM CST SAT FEB 28 2015

KSZ040-057-103>105-MOZ028-029-037-043-282300-
...KANSAS CITY METROPOLITAN AREA...

CITY           SKY/WX    TMP DP  RH WIND       PRES   REMARKS
K.C. INTL      LGT SNOW  23  18  81 SE7       30.39F WCI  15
K.C. DOWNTOWN  LGT SNOW  25  17  72 SE7       30.41F WCI  17
LEES SUMMIT    CLOUDY    22  18  85 E6        30.40S WCI  14
OLATHE - IXD   CLOUDY    22  17  81 SE8       30.39F WCI  12
OLATHE - OJC   CLOUDY    22  18  85 SE6       30.38F WCI  14
LAWRENCE       LGT SNOW  23  18  81 SE7       30.40F WCI  15

$$

MOZ001>008-011>017-020>025-030>033-038>040-044>046-053-054-282300-
...NORTHERN AND CENTRAL MISSOURI...

CITY           SKY/WX    TMP DP  RH WIND       PRES   REMARKS
ST. JOSEPH     LGT SNOW  24  18  77 S9        30.42S WCI  14
MOSBY          LGT SNOW  25  19  80 SE5       30.42F WCI  19
WARRENSBURG    LGT SNOW  23  21  93 E6        30.42F WCI  16
WHITEMAN AFB   NOT AVBL
CLINTON        LGT SNOW  27  23  86 CALM      30.43S VSB 3/4
SEDALIA        SNOW      24  20  84 SE5       30.43S VSB 1/2 WCI  18
WARSAW         NOT AVBL
MARSHALL       LGT SNOW  25  23  93 E3        30.45  VSB 3/4
CHILLICOTHE      N/A     23  18  81 SE7       30.45F WCI  15
KIRKSVILLE     LGT SNOW  21  19  92 SE8       30.45F VSB 1   WCI  11

$$

MOZ041-047>049-056>058-063>065-088>090-097-282300-
...EASTERN AND SOUTHERN MISSOURI...

CITY           SKY/WX    TMP DP  RH WIND       PRES   REMARKS
ST. LOUIS INTL SNOW      26  21  81 E6        30.49F VSB 1/2 WCI  19
SPIRIT OF STL  LGT SNOW  25  22  88 E5        30.48F VSB 3/4 WCI  19
COLUMBIA       SNOW      23  21  92 E8        30.43F VSB 1/4 WCI  14
JEFFERSON CITY SNOW      24  22  91 E6        30.46F VSB 1/2 WCI  17
MEXICO         LGT SNOW  25  23  93 E6        30.46  VSB 1   WCI  18
HANNIBAL       LGT SNOW  25  18  74 E3        30.48F VSB 1
ROLLA          SNOW      24  20  84 E7        30.40F VSB 1/2 WCI  16
OSAGE BEACH    CLOUDY    25  21  86 SE3       30.42S VSB 3/4
SPRINGFIELD    SNOW      24  21  88 SE5       30.37S VSB 1/4 WCI  18
BRANSON        LGT SNOW  25  19  80 E6        30.38S WCI  18
JOPLIN         SNOW      25  22  88 SE6       30.38S VSB 1/2 WCI  18
WEST PLAINS    LGT SNOW  25  20  81 E3        30.40F VSB 1

$$

IAZ060-094-KSZ022-034>040-054-083-096-NEZ052-066-093-282300-
...KANSAS...SOUTHEAST NEBRASKA AND IOWA...

CITY           SKY/WX    TMP DP  RH WIND       PRES   REMARKS
TOPEKA         CLOUDY    24  17  74 SE5       30.40S WCI  18
MANHATTAN      LGT SNOW  24  18  77 S8        30.36F WCI  15
EMPORIA        CLOUDY    22  17  81 SE6       30.34F WCI  14
CHANUTE        LGT SNOW  23  21  92 E6        30.38F FOG     WCI  16
WICHITA        CLOUDY    22  16  78 SE6       30.31F WCI  14
OMAHA          LGT SNOW  23  17  78 S10       30.37F FOG     WCI  12
LINCOLN        CLOUDY    23  16  74 S8        30.35F WCI  14
FALLS CITY     LGT SNOW  23  18  81 SE8       30.39S WCI  14
LAMONI         LGT SNOW  22  17  81 SE8       30.39F WCI  12
DES MOINES     LGT SNOW  22  16  78 S9        30.42F VSB 1   WCI  12

$$



USA.gov is the U.S. government's official web portal to all federal, state and local government web resources and services.